Regional Weather Roundup
Issued by NWS Austin/San Antonio, TX

Home | Current Version | Previous Version | Text Only | Print | Product List | Glossary On
Versions: 1 2 3 4 5 6 7 8 9 10 11 12 13 14 15 16 17 18 19 20 21 22 23 24 25 26 27 28 29 30 31 32 33 34 35 36 37 38 39 40 41 42 43 44 45 46 47 48 49 50
000
ASUS44 KEWX 272002
RWREWX
SOUTH TEXAS REGIONAL WEATHER ROUNDUP
NATIONAL WEATHER SERVICE AUSTIN/SAN ANTONIO TX
300 PM CDT TUE JUN 27 2017

NOTE: "FAIR" INDICATED FEW OR NO CLOUDS BELOW 12,000 FEET WITH NO
SIGNIFICANT WEATHER AND/OR OBSTRUCTIONS TO VISIBILITY.

* - THESE STATIONS ARE NOT NWS OR FAA STATIONS...AND ARE NOT SUBJECT
    TO NWS AND FAA QUALITY CONTROL.

TXZ171-172-183>190-272100-
TEXAS HILL COUNTRY AND EDWARDS PLATEAU

CITY           SKY/WX    TMP DP  RH WIND       PRES   REMARKS
JUNCTION       MOSUNNY   88  66  48 E10       30.00F HX  90
*LLANO         MOSUNNY   90  70  51 SE3       30.03F HX  95
BURNET         PTSUNNY   87  67  51 E8        30.02F HX  90
*HORSESHOE BAY LGT RAIN  78  73  85 MISG      30.00S
*KERRVILLE     CLOUDY    85  69  59 NE9       30.01F
*FREDERICKSBRG PTSUNNY   80  66  63 E14G20    30.02F
*ROCKSPRINGS   PTSUNNY   84  64  51 S7        30.05F
*BOERNE STAGE  CLOUDY    82  66  57 E10       30.00F
*CASTROVILLE   CLOUDY    87  66  49 E8        29.98F
HONDO          CLOUDY    89  70  53 E12G17    29.97F HX  94
*UVALDE        CLOUDY    85  69  59 E10G16    29.97F
DEL RIO        MOSUNNY   90  67  46 SE9       29.93F HX  93
LAUGHLIN AFB   NOT AVBL
CARRIZO SPRGS  CLOUDY    88  68  51 E7        29.93F HX  91
*EAGLE PASS    PTCLDY    90  68  48 SE12      29.94F HX  93
$$

TXZ173-191>194-202-209-217>225-228-272100-
CENTRAL AND SOUTH CENTRAL TEXAS

CITY           SKY/WX    TMP DP  RH WIND       PRES   REMARKS
GEORGETOWN     MOSUNNY   90  68  48 E8        29.98F HX  93
AUSTIN/BERGSTM PTSUNNY   90  70  51 NE9G16    29.95F HX  95
AUSTIN/MABRY   MOSUNNY   89  69  51 VRB3      29.98F HX  93
*AUSTIN/EXEC     N/A     88  70  55 SE6       29.98F HX  92
*LAGO VISTA    PTSUNNY   87  69  55 E6        30.00F HX  90
SAN MARCOS     PTSUNNY   88  72  58 NE12      30.97R HX  94
NEW BRAUNFELS  CLOUDY    89  73  59 E7        29.95F HX  97
RANDOLPH AFB   NOT AVBL
PT SAN ANTONIO CLOUDY    86  72  62 SE8       29.94F HX  92
SAN ANTONIO    CLOUDY    90  68  48 E12       29.96F HX  94
STINSON FIELD  CLOUDY    87  72  60 SE10      29.94F HX  93
*LA GRANGE     CLOUDY    88  72  59 E5        29.94F HX  95
*GIDDINGS      MOSUNNY   88  68  51 E8        29.97F HX  91
*GONZALES      MOSUNNY   84  75  73 SE10      29.97F HX  92
$$

TXZ163>164-176>182-195>201-210>213-226-227-235-272100-
SOUTHEAST TEXAS

CITY           SKY/WX    TMP DP  RH WIND       PRES   REMARKS
COLLEGE STN    SUNNY     86  71  60 SE12G17   29.96F HX  91
*BRYAN         MOSUNNY   87  73  61 SE10G18   29.97F HX  94
*CALDWELL      NOT AVBL
*CROCKETT      MOSUNNY   88  72  58 NE5       30.01F HX  94
*BRENHAM       MOSUNNY   89  73  58 E6        29.97F HX  97
HUNTSVILLE     CLOUDY    90  67  46 E6        29.97F HX  93
CONROE         CLOUDY    87  72  60 SE9       29.97F HX  93
HOUSTON BUSH   LGT RAIN  77  73  87 SE9       29.98F
HOUSTON HOBBY  LGT RAIN  82  74  76 S7        29.98S
*HOUSTON SW AP CLOUDY    80  74  79 SE8       29.99S
PEARLAND       NOT AVBL
HOUSTON HOOKS  CLOUDY    86  70  58 SE10      29.97F HX  90
ELLINGTON FLD  PTSUNNY   84  77  79 SE7       30.00S HX  94
SUGAR LAND     CLOUDY    83  73  72 SE10      29.98S
*HOUSTON EXEC  LGT RAIN  77  75  94 E7        29.99F
*CLEVELAND MUN CLOUDY    86  74  68 SE5       29.98F HX  93
*WHARTON       LGT RAIN  75  73  91 NE5       29.98S
*COLUMBUS      DRIZZLE   74  72  92 CALM      29.99F
*EAGLE LAKE    DRIZZLE   77  76  97 SE3       29.98F
$$

TXZ214>216-236>238-272100-
THE UPPER TEXAS COAST

CITY           SKY/WX    TMP DP  RH WIND       PRES   REMARKS
*ORANGE        CLOUDY    80  77  90 CALM      30.00F
PORT ARTHUR    CLOUDY    82  73  74 SE5       29.98S
GALVESTON      LGT RAIN  80  76  87 E9        29.98F
ANGLETON       MOSUNNY   83  74  74 E9        29.97S
*BAY CITY      PTSUNNY   87  71  60 E9        29.95F HX  92
PALACIOS       PTSUNNY   83  73  72 SE14      29.94F
$$

TXZ229>234-239>247-272100-
TEXAS COASTAL BEND AND RIO GRANDE PLAINS

CITY           SKY/WX    TMP DP  RH WIND       PRES   REMARKS
VICTORIA       PTSUNNY   84  73  69 E12       29.95F HX  90
*BEEVILLE      PTSUNNY   84  74  71 SE10      29.95F HX  92
ROCKPORT       CLOUDY    80  74  81 SE9       29.93F
*PORT ARANSAS  PTSUNNY   81  74  79 E8        29.93F
*PORT LAVACA   PTSUNNY   85  77  77 E8        29.94F HX  95
*INGLESIDE     CLOUDY    82  75  80 MISG      29.92F
CORPUS CHRISTI LGT RAIN  85  76  74 E12       29.92F HX  94
CORPUS NAS     CLOUDY    85  74  69 SE12      29.91F HX  92
*ROBSTOWN      CLOUDY    80  77  91 E9        29.92F
ALICE          LGT RAIN  85  71  63 E15G21    29.92F HX  90
KINGSVILLE NAS PTSUNNY   85  75  72 E17       29.91F HX  93
COTULLA        HVY RAIN  75  73  93 E13G23    29.96R VSB 3/4
*FAITH RANCH   MOSUNNY   88  70  55 E13G18    29.94F HX  92
LAREDO         CLOUDY    93  70  46 E15       29.89F HX  99
$$

TXZ248>255-272100-
DEEP SOUTH TEXAS

CITY           SKY/WX    TMP DP  RH WIND       PRES   REMARKS
BROWNSVILLE    TSTM      76  73  91 NW17G25   29.92R
PORT ISABEL    RAIN      79  77  94 NE8       29.89F FOG
*SOUTH PADRE   NOT AVBL
HARLINGEN      LGT RAIN  79  79 100 E14       29.89S
*HEBBRONVILLE  LGT RAIN  78  74  87 E10G16    29.94S
MCALLEN        MOSUNNY   96  72  45 NE14      29.87F HX 104
*WESLACO       CLOUDY    89  73  59 E13       29.87F HX  96
FALFURRIAS     MOSUNNY   83  74  72 E15G21    29.91F HX  90
EDINBURG       CLOUDY    92  70  48 NE14G20   29.89F HX  97
*ZAPATA        CLOUDY    94  63  35 N7        29.87F HX  95
$$

TXZ213>215-236>238-242>244-246-247-251-254-255-272100-
CMAN STATIONS

STATION/POSITION TIME  TEMP    WIND        PRES    WAVE
                       AIR SEA DIR/SP/G            HT/PER
                 (UTC) (F)     (DEG/KT/KT) (MB)    (FT/S)
SABINE PASS      1930   80 85   70/ 13/ 16 1017.1
SEA RIM ST PARK  1900   82     120/ 10/ 13 1016.1
NORTH JETTY/GLS  1930      84   90/ 12/ 14 1014.9
EAGLE POINT      1930   78 84  230/  6/  8 1015.3
MORGANS POINT    1930   82 84  100/  8/ 11 1015.0
MISSION/ARANSAS  1900          120/  9       N/A
PORT O`CONNOR    1930   83     100/ 14/ 17 1013.4
PORT ARANSAS     1900   78 84   80/ 10/ 11 1013.9
MALAQUITE BEACH  1930   79 85  100/ 12/ 17 1012.7
BAFFIN BAY       1930   79 85              1013.1
PORT ISABEL      1930   81 87              1012.3
$$




USA.gov is the U.S. government's official web portal to all federal, state and local government web resources and services.